Regional Weather Roundup
Issued by NWS Kansas City/Pleasant Hill, MO

Home | Current Version | Previous Version | Graphics & Text | Print | Product List | Glossary Off
Versions: 1 2 3 4 5 6 7 8 9 10 11 12 13 14 15 16 17 18 19 20 21 22 23 24 25 26 27 28 29 30 31 32 33 34 35 36 37 38 39 40 41 42 43 44 45 46 47 48 49 50

000
ASUS43 KEAX 040010
RWREAX

WEATHER ROUNDUP FOR EASTERN KANSAS AND NORTHWEST MISSOURI
NATIONAL WEATHER SERVICE KANSAS CITY/PLEASANT HILL MO
700 PM CDT MON AUG 03 2015

KSZ040-057-103>105-MOZ028-029-037-043-040100-
...KANSAS CITY METROPOLITAN AREA...

CITY           SKY/WX    TMP DP  RH WIND       PRES   REMARKS
K.C. INTL      MOSUNNY   83  70  64 NE12      29.91S
6HR MIN TEMP:  79; 6HR MAX TEMP:  85;

K.C. DOWNTOWN  SUNNY     86  70  58 E8        29.88S HX  90
6HR MIN TEMP:  84; 6HR MAX TEMP:  92;

LEES SUMMIT    SUNNY     85  72  65 E6        29.90F HX  91
6HR MIN TEMP:  83; 6HR MAX TEMP:  90;

OLATHE - IXD   SUNNY     91  68  46 S7        29.90S HX  95
6HR MIN TEMP:  89; 6HR MAX TEMP:  93;

OLATHE - OJC   SUNNY     90  67  46 CALM      29.89F HX  93
6HR MIN TEMP:  88; 6HR MAX TEMP:  93;

LAWRENCE       SUNNY     90  72  55 S6        29.88S HX  97

$$

MOZ001>008-011>017-020>025-030>033-038>040-044>046-053-054-040100-
...NORTHERN AND CENTRAL MISSOURI...

CITY           SKY/WX    TMP DP  RH WIND       PRES   REMARKS
ST. JOSEPH     MOSUNNY   80  70  71 NE8       29.91F
6HR MIN TEMP:  78; 6HR MAX TEMP:  84;

WARRENSBURG    SUNNY     84  72  65 NE5       29.89S
WHITEMAN AFB   MOSUNNY   85  74  67 SE3       29.89S HX  93
6HR MIN TEMP:  84; 6HR MAX TEMP:  88;

CLINTON        NOT AVBL
SEDALIA        SUNNY     85  72  65 SE5       29.91F HX  91
6HR MIN TEMP:  84; 6HR MAX TEMP:  88;

WARSAW         NOT AVBL
CHILLICOTHE      N/A     79  71  76 CALM      29.93F
6HR MIN TEMP:  73; 6HR MAX TEMP:  83;

KIRKSVILLE     MOSUNNY   77  65  66 CALM      29.94S
6HR MIN TEMP:  70; 6HR MAX TEMP:  82; 6HR PCP:  0.02;


$$

MOZ041-047>049-056>058-063>065-088>090-097-040100-
...EASTERN AND SOUTHERN MISSOURI...

CITY           SKY/WX    TMP DP  RH WIND       PRES   REMARKS
ST. LOUIS INTL MOSUNNY   87  67  51 N8        29.90S HX  90
6HR MIN TEMP:  87; 6HR MAX TEMP:  94;

SPIRIT OF STL  MOSUNNY   88  67  49 NW5       29.88S HX  91
COLUMBIA       SUNNY     86  69  56 W3        29.91F HX  90
JEFFERSON CITY SUNNY     88  67  49 NW6       29.89S HX  91
ROLLA          SUNNY     85  68  56 SW3       29.92F
OSAGE BEACH    MOSUNNY   86  72  62 CALM      29.92S HX  92
SPRINGFIELD    SUNNY     89  65  44 SW6       29.94S HX  91
BRANSON        PTSUNNY   86  68  54 CALM      29.96F
JOPLIN         MOSUNNY   89  65  44 SW10      29.93S HX  91
WEST PLAINS    MOSUNNY   88  66  48 W3        29.96S HX  90

$$

IAZ060-094-KSZ022-034>040-054-083-096-NEZ052-066-093-040100-
...KANSAS...SOUTHEAST NEBRASKA AND IOWA...

CITY           SKY/WX    TMP DP  RH WIND       PRES   REMARKS
TOPEKA         SUNNY     91  71  51 SE3       29.88S HX  97
6HR MIN TEMP:  90; 6HR MAX TEMP:  93;

MANHATTAN      MOSUNNY   92  70  48 SE6       29.87S HX  97
EMPORIA        PTSUNNY   88  71  57 S6        29.89F HX  94
CHANUTE        PTSUNNY   88  66  48 S8        29.91S HX  90
WICHITA        MOSUNNY   89  71  55 SE12      29.89F HX  95
OMAHA          PTSUNNY   81  62  52 NE6       29.93F
LINCOLN        PTSUNNY   81  64  56 E10       29.94F
FALLS CITY     MOSUNNY   79  72  79 E9        29.91F
LAMONI         LGT RAIN  79  66  64 NE3       29.94F
DES MOINES     MOSUNNY   80  54  40 NW8       29.93S

$$




USA.gov is the U.S. government's official web portal to all federal, state and local government web resources and services.